User: anonymous   Login
Location: Gorze? G�rny
(49.8500°N, 19.5000°E)
Time: 03:47:37
(UTC+00:00)
Language:

Cosmos 1805 - Orbit

View from above orbital plane
View from above orbital plane
View from above satellite
View from above satellite

Ground track
Ground track

The orbit data is extracted from the following two-line orbital elements,

1 17191U 86097A   21207.44654319  .00000339  00000-0  17424-4 0  9994
2 17191  82.4752 350.3851 0003553 320.1218  39.9751 15.13066190890112
Epoch (UTC): 26 July 2021 10:43:01
Eccentricity: 0.0003553
inclination: 82.4752°
perigee height: 524 km
apogee height: 529 km
right ascension of ascending node: 350.3851°
argument of perigee: 320.1218°
revolutions per day: 15.13066190
mean anomaly at epoch: 39.9751°
orbit number at epoch: 89011

The dashed part of the orbit path shows where the satellite is in the earth's shadow,  

DLR